Temp
47 47 47 47 47 47 48 48 48 47 48 48 48 48 48 47 48 44 41 43 40 33 36 43 45 40 36 36 32 37 35 36 34 30 29 28 30 34 31 36 36 34 30 26 27 24 21 46 45 36 39 41 44 43
47 47 46 46 46 47 47 47 47 47 47 47 47 47 47 47 47 46 38 43 44 37 36 43 45 44 46 45 38 38 37 38 37 33 32 34 31 33 34 26 42 31 34 29 33 29 40 45 43 45 45 45 43 43
46 46 46 46 46 47 47 47 46 47 47 47 47 47 46 47 48 46 40 39 41 37 37 38 37 45 49 48 49 36 38 43 40 40 32 31 30 34 28 28 33 39 43 32 35 38 42 44 47 48 49 47 46 45
46 46 46 46 46 46 46 46 46 46 46 47 47 47 47 47 48 48 40 41 42 37 32 36 45 43 50 50 49 47 45 44 42 39 35 29 29 38 30 33 32 35 39 36 33 39 43 45 45 46 46 47 45 45
45 45 45 46 46 46 46 46 46 46 46 46 47 47 47 47 48 45 43 44 45 37 32 33 42 48 50 47 46 46 44 40 36 35 32 29 34 35 32 33 30 39 37 30 28 41 40 41 45 46 44 45 46 44
44 45 45 45 45 46 46 46 46 46 46 46 46 47 47 47 48 40 34 42 45 43 34 31 39 42 45 45 44 43 41 38 37 35 32 34 40 35 25 23 36 42 44 44 39 45 42 43 45 46 45 45 46 45
45 45 45 45 45 45 45 45 45 46 46 46 46 46 46 47 42 36 35 40 47 44 35 30 29 39 43 41 38 38 39 37 36 33 32 33 35 36 23 26 38 42 44 45 44 42 39 43 41 47 46 47 46 45
45 45 45 44 43 44 44 45 45 45 45 45 45 45 46 46 45 39 44 48 47 41 39 27 29 32 40 32 30 36 33 34 33 32 33 32 35 31 24 34 41 44 46 45 45 45 43 45 44 45 46 43 42 40
43 42 41 40 40 41 40 41 43 44 44 44 45 45 43 37 32 38 48 47 46 40 29 27 24 21 38 33 33 32 32 23 33 25 30 31 27 25 32 37 40 42 41 42 43 43 43 41 43 44 42 41 39 37
40 37 43 43 45 45 43 43 41 42 44 46 42 33 31 35 45 43 35 32 33 35 36 29 31 26 34 29 26 27 26 25 22 28 31 24 26 37 41 42 42 41 42 42 37 37 39 38 40 41 41 39 40 38
40 40 39 43 44 44 44 44 44 45 45 38 32 32 37 44 39 32 28 26 25 24 30 31 32 30 35 26 25 28 23 25 21 26 26 23 25 32 41 41 43 43 42 42 44 45 44 43 41 39 37 36 36 36
42 43 43 44 46 46 46 46 46 42 38 38 39 40 39 35 30 27 23 26 25 26 29 29 31 33 32 34 27 25 26 25 21 28 21 19 27 37 39 40 40 39 38 37 37 38 40 42 42 39 36 35 35 34
44 43 44 45 45 46 46 47 46 46 45 41 36 32 31 27 20 20 14 22 18 25 28 29 27 32 32 31 24 24 23 20 27 15 19 25 34 39 39 39 39 37 36 36 35 34 32 35 38 36 33 32 32 31
45 45 45 45 45 46 46 47 46 43 40 30 24 17 20 15 22 22 25 28 30 30 31 32 29 30 25 25 20 18 24 25 16 12 23 26 33 33 34 34 35 32 32 32 32 32 31 24 25 27 29 31 32 30
45 45 45 45 45 46 46 46 45 39 32 28 27 13 18 24 24 23 25 28 29 31 31 29 28 29 24 23 25 25 22 16 21 20 25 29 31 32 31 33 32 33 32 31 32 30 29 29 29 29 29 31 31 29
45 43 41 45 45 46 46 42 38 35 31 30 28 22 22 20 16 18 19 21 29 29 28 29 23 21 20 23 24 19 23 19 21 22 30 30 31 31 31 32 33 32 32 31 31 30 30 29 29 28 28 28 27 26
43 35 44 45 45 45 45 37 34 31 28 29 19 19 19 18 17 16 25 25 30 28 20 27 22 26 29 26 25 26 17 23 30 32 30 28 27 32 31 31 31 32 31 31 30 30 29 29 28 28 27 27 28 27
34 38 45 45 43 40 36 36 30 29 28 22 19 20 21 20 20 20 23 29 30 30 31 29 31 25 16 21 19 25 31 32 30 30 29 28 29 33 33 32 32 32 31 30 29 29 28 28 29 28 28 29 28 28
38 39 45 45 42 36 30 32 32 24 23 23 22 27 26 22 26 27 26 29 33 34 33 31 27 23 22 25 25 25 27 29 29 31 29 32 29 28 30 32 32 31 30 30 30 30 30 31 30 29 28 29 27 27
44 44 44 44 44 34 32 30 36 29 26 28 31 28 27 29 31 30 28 29 29 28 27 26 25 24 25 26 28 28 27 29 28 25 25 26 29 31 32 32 31 31 30 31 31 30 30 29 28 28 27 26 25 25
42 40 43 41 36 35 31 30 30 28 30 30 27 29 30 32 31 30 31 33 31 28 26 27 25 27 29 28 28 29 30 31 30 30 28 31 29 32 31 32 32 31 30 29 29 26 28 28 26 27 24 20 20 22
36 44 36 38 31 33 32 35 30 30 30 28 28 31 28 28 29 30 32 30 30 29 27 27 28 28 30 31 30 33 32 33 32 30 31 31 30 30 30 32 30 29 28 27 27 26 25 25 26 25 23 21 22 23
40 37 33 33 26 26 25 34 29 29 27 25 29 29 26 28 32 33 29 32 32 30 31 33 34 34 33 33 33 33 33 33 31 30 31 31 31 32 31 32 32 29 27 27 27 27 25 26 25 25 25 25 25 24
39 31 26 27 29 22 27 27 29 28 27 26 25 24 26 27 31 29 26 28 30 28 31 33 32 31 31 32 31 32 32 32 30 29 31 31 30 30 32 32 32 32 30 30 29 28 27 27 27 27 27 27 26 24
24 21 28 18 25 27 22 20 23 27 19 22 24 21 22 30 23 23 26 26 29 27 27 30 32 32 30 30 30 30 34 32 30 29 29 31 30 30 29 30 29 30 32 31 30 30 29 29 29 27 26 26 24 23
20 17 23 23 21 21 20 17 18 22 21 19 21 25 25 23 21 22 28 28 30 30 32 32 32 31 31 32 30 30 30 31 31 28 27 31 31 28 26 25 23 25 27 29 29 28 27 27 27 26 25 25 23 21
15 11 25 30 28 27 17 18 25 18 12 12 18 19 21 18 18 24 27 27 28 30 31 31 32 32 31 30 30 29 27 28 29 29 29 28 28 29 28 25 23 25 27 27 27 27 26 25 25 24 24 24 23 22
22 22 19 16 19 25 13 11 12 11 16 25 22 12 13 19 19 22 24 25 25 27 30 30 31 30 31 29 27 25 23 23 25 25 25 24 22 21 22 23 24 25 24 24 24 25 26 26 25 24 24 23 22 22
19 23 21 10 10 15 14 16 15 22 24 21 11 15 18 23 21 20 21 23 24 24 26 27 24 27 27 26 25 23 26 25 24 20 19 17 16 18 24 25 20 18 21 21 25 23 23 24 24 23 23 22 20 19
19 25 17 10 10 11 15 20 14 15 22 23 23 23 24 24 20 19 19 18 19 19 21 20 23 26 23 25 23 23 24 25 22 22 18 17 19 17 23 27 27 27 27 27 26 26 26 23 23 21 20 19 18 15
26 22 19 17 14 16 17 13 10 13 12 16 18 22 23 19 20 20 23 21 21 13 15 26 29 29 27 23 22 22 20 25 27 24 21 16 16 21 22 23 27 27 27 26 25 22 21 21 19 17 16 15 14 14
16 16 15 12 16 18 15 13 10 7 8 5 8 7 12 13 14 16 15 24 22 24 25 28 28 27 29 28 30 29 28 25 21 24 27 23 14 18 20 19 26 25 24 21 22 21 20 19 18 17 15 14 14 13
17 16 17 19 16 16 17 16 14 12 7 7 9 9 12 18 15 17 17 27 27 27 28 27 28 28 27 28 28 27 26 27 28 28 27 24 19 22 21 22 23 23 22 20 20 19 18 17 16 15 15 14 12 12
MSLP
1003.70 1004.48 1005.24 1005.97 1006.70 1007.41 1008.01 1008.61 1009.17 1009.70 1010.15 1010.58 1011.00 1011.44 1011.86 1012.27 1012.63 1013.25 1013.49 1013.93 1014.43 1014.17 1012.96 1012.09 1011.78 1010.93 1011.37 1011.46 1011.88 1012.49 1012.89 1012.81 1013.24 1013.58 1013.67 1013.48 1012.72 1011.33 1010.64 1010.21 1010.24 1010.91 1012.09 1012.81 1013.18 1013.12 1011.96 1010.55 1010.42 1010.45 1010.35 1010.39 1010.78 1011.54
1002.33 1003.23 1004.06 1004.84 1005.61 1006.34 1007.02 1007.63 1008.25 1008.83 1009.36 1009.88 1010.30 1010.76 1011.22 1011.62 1011.98 1012.57 1013.13 1013.26 1013.53 1014.10 1012.94 1012.12 1011.19 1010.55 1009.92 1009.53 1010.71 1011.82 1011.92 1011.95 1012.68 1012.72 1012.68 1012.30 1012.14 1011.73 1011.22 1010.93 1010.31 1010.72 1010.63 1011.57 1011.69 1011.19 1010.59 1010.15 1010.19 1009.91 1010.11 1010.46 1010.87 1011.41
1001.18 1002.18 1003.01 1003.84 1004.65 1005.36 1006.06 1006.73 1007.41 1008.00 1008.61 1009.12 1009.58 1010.04 1010.46 1010.95 1011.33 1011.96 1012.50 1012.75 1013.02 1013.13 1012.70 1011.91 1011.08 1009.77 1009.48 1008.21 1008.52 1010.19 1011.46 1011.44 1011.65 1011.38 1012.08 1012.21 1011.89 1011.62 1011.61 1011.21 1010.80 1010.23 1009.90 1010.39 1010.98 1010.41 1009.93 1009.74 1009.59 1009.60 1010.06 1010.59 1010.75 1011.09
1000.23 1001.33 1002.18 1003.04 1003.76 1004.46 1005.18 1005.89 1006.57 1007.16 1007.79 1008.35 1008.82 1009.31 1009.79 1010.32 1010.89 1011.42 1011.94 1012.04 1012.27 1012.06 1011.71 1010.69 1010.13 1009.46 1007.80 1007.93 1007.86 1008.98 1009.77 1010.48 1010.77 1011.14 1011.85 1012.17 1012.25 1011.69 1011.85 1011.65 1011.28 1010.71 1010.36 1010.29 1010.53 1010.10 1009.73 1009.51 1009.51 1009.75 1010.16 1010.30 1010.77 1011.14
999.72 1000.91 1001.74 1002.47 1003.15 1003.81 1004.44 1005.07 1005.72 1006.36 1007.00 1007.57 1008.05 1008.58 1009.21 1009.89 1010.53 1011.07 1011.27 1011.07 1011.31 1011.26 1010.53 1010.13 1009.44 1008.24 1007.91 1007.63 1008.48 1009.00 1009.50 1010.22 1011.10 1011.75 1012.43 1012.53 1012.09 1012.01 1012.21 1011.98 1011.26 1010.50 1010.17 1010.28 1010.14 1009.71 1009.84 1009.98 1009.47 1009.87 1010.30 1010.29 1010.32 1010.65
1000.02 1000.72 1001.34 1001.87 1002.36 1002.88 1003.50 1004.17 1004.83 1005.47 1006.10 1006.72 1007.30 1007.98 1008.78 1009.51 1010.24 1011.01 1010.47 1010.09 1010.16 1010.62 1010.52 1009.93 1009.42 1008.56 1008.46 1008.62 1009.20 1009.74 1010.04 1010.64 1011.24 1011.94 1012.63 1012.31 1011.71 1011.93 1012.46 1011.87 1010.58 1009.89 1009.45 1009.24 1009.39 1009.30 1009.45 1009.40 1009.41 1009.47 1009.72 1009.65 1009.76 1010.10
999.94 1000.47 1000.88 1001.19 1001.53 1001.98 1002.52 1003.17 1003.83 1004.43 1005.14 1005.90 1006.72 1007.48 1008.27 1008.93 1009.61 1009.30 1008.21 1007.54 1007.96 1009.91 1009.80 1009.76 1009.59 1009.37 1009.32 1009.66 1010.18 1010.38 1010.38 1011.28 1011.83 1012.51 1012.71 1012.51 1012.10 1012.01 1012.04 1011.24 1010.10 1009.35 1009.01 1008.91 1008.92 1009.09 1009.28 1009.21 1009.25 1009.04 1009.13 1009.08 1009.27 1009.65
1000.22 1000.33 1000.35 1000.43 1000.64 1000.81 1001.22 1001.83 1002.52 1003.28 1004.29 1005.33 1006.27 1007.10 1007.91 1008.47 1008.70 1008.71 1007.38 1006.69 1007.73 1009.10 1008.93 1009.45 1009.92 1010.20 1009.76 1010.40 1010.83 1010.84 1011.65 1012.02 1012.27 1012.57 1012.57 1012.51 1012.21 1011.96 1011.38 1010.10 1009.27 1008.77 1008.62 1008.59 1008.51 1008.44 1008.56 1008.48 1008.59 1008.62 1008.52 1008.82 1009.34 1009.73
1000.47 1000.16 999.85 999.30 998.94 998.72 998.92 999.76 1001.01 1002.46 1003.88 1004.92 1006.06 1006.84 1007.23 1007.59 1007.66 1006.76 1006.91 1007.18 1007.80 1008.49 1007.96 1008.59 1009.17 1009.61 1009.37 1010.39 1011.05 1011.81 1012.36 1013.43 1012.96 1012.83 1012.64 1012.22 1011.85 1011.11 1009.77 1008.84 1008.27 1008.02 1008.10 1008.04 1007.92 1007.94 1007.99 1008.22 1008.15 1008.16 1008.37 1008.67 1009.08 1009.69
1000.92 1000.24 997.21 997.38 997.30 996.50 995.52 995.68 999.27 1002.24 1003.42 1004.46 1005.65 1005.97 1006.30 1006.26 1006.22 1006.43 1008.42 1008.86 1008.89 1007.86 1007.61 1008.27 1008.61 1009.47 1009.85 1010.75 1011.90 1012.78 1013.37 1013.48 1013.31 1012.63 1012.19 1012.03 1010.73 1009.22 1008.07 1007.63 1007.55 1007.49 1007.70 1007.76 1007.94 1007.89 1007.67 1007.70 1007.73 1007.72 1007.86 1007.98 1008.46 1009.25
1001.30 1001.12 1000.54 999.53 999.25 998.80 998.54 999.09 1000.29 1001.53 1002.85 1003.82 1004.39 1005.02 1005.99 1005.97 1006.53 1007.85 1008.64 1008.40 1008.41 1008.39 1008.06 1008.27 1008.53 1009.34 1009.81 1010.80 1011.98 1012.82 1013.36 1013.38 1013.38 1012.66 1012.34 1011.52 1010.20 1008.31 1007.13 1006.82 1006.67 1007.04 1007.27 1007.30 1007.26 1006.82 1006.75 1006.75 1006.87 1007.13 1007.51 1007.87 1008.36 1009.17
1002.37 1001.63 1001.35 1000.93 1000.52 1000.62 1000.88 1001.17 1001.43 1001.75 1001.92 1001.97 1002.88 1004.53 1005.27 1005.96 1006.91 1007.59 1008.85 1009.03 1008.95 1009.01 1008.77 1008.82 1008.92 1009.08 1009.95 1010.54 1012.11 1012.99 1013.46 1013.35 1013.00 1012.27 1012.36 1011.02 1009.16 1007.84 1007.00 1006.70 1007.11 1007.05 1007.53 1007.08 1007.18 1007.13 1006.65 1006.28 1006.00 1006.38 1006.84 1007.54 1008.27 1009.00
1003.34 1002.78 1002.23 1002.18 1001.82 1001.58 1001.57 1001.58 1001.50 1001.47 1001.85 1002.61 1003.48 1005.04 1006.12 1007.65 1008.51 1009.09 1009.74 1009.53 1009.33 1008.91 1008.84 1008.74 1009.28 1009.58 1010.31 1010.93 1012.21 1012.79 1013.27 1013.17 1012.42 1012.30 1011.37 1009.78 1008.31 1007.85 1007.59 1006.64 1007.08 1007.29 1007.50 1007.83 1007.93 1007.73 1007.07 1006.28 1005.65 1005.84 1006.50 1007.13 1008.06 1009.32
1003.93 1003.62 1003.31 1003.16 1002.96 1002.79 1002.57 1002.28 1001.85 1001.64 1002.10 1004.07 1005.79 1007.54 1008.26 1009.23 1009.41 1009.53 1009.31 1009.09 1008.99 1008.92 1008.72 1008.96 1009.65 1010.27 1011.07 1011.79 1012.29 1012.85 1012.56 1012.38 1012.33 1011.82 1010.32 1009.00 1008.09 1008.15 1008.20 1008.00 1007.52 1007.84 1008.44 1008.64 1008.36 1007.94 1007.82 1007.50 1007.15 1006.80 1007.08 1007.52 1008.43 1009.83
1004.67 1004.64 1004.54 1004.35 1003.95 1003.62 1003.29 1003.17 1003.03 1003.00 1004.21 1005.88 1007.15 1009.12 1009.79 1009.84 1009.89 1009.64 1009.32 1009.27 1009.18 1008.97 1009.08 1009.74 1010.24 1010.58 1011.31 1011.87 1012.13 1012.39 1012.48 1011.95 1011.15 1010.23 1009.21 1008.55 1008.54 1008.57 1008.71 1008.81 1008.65 1008.59 1008.89 1008.94 1008.75 1008.61 1008.49 1008.19 1008.21 1008.36 1008.60 1008.87 1009.53 1010.53
1005.30 1005.26 1005.68 1005.44 1005.20 1004.89 1004.45 1003.94 1003.97 1004.53 1006.08 1007.23 1008.48 1009.77 1010.25 1010.65 1010.94 1010.52 1010.41 1009.93 1009.19 1009.27 1009.42 1009.72 1010.44 1011.02 1011.29 1011.36 1011.90 1011.75 1011.52 1010.80 1009.90 1009.07 1008.90 1008.87 1008.89 1008.96 1008.98 1008.89 1008.76 1008.75 1008.92 1009.10 1009.13 1009.09 1009.07 1008.98 1009.11 1009.37 1009.83 1010.25 1010.74 1011.30
1005.99 1006.59 1006.47 1006.24 1005.97 1005.62 1005.24 1005.30 1005.73 1007.23 1008.15 1008.93 1010.23 1010.14 1010.61 1011.14 1011.25 1011.00 1010.32 1009.66 1009.26 1009.38 1009.83 1010.01 1010.32 1010.40 1010.76 1010.67 1010.89 1010.49 1010.13 1009.97 1009.66 1009.51 1009.52 1009.24 1009.31 1009.25 1009.24 1008.98 1008.88 1008.99 1009.05 1009.23 1009.49 1009.56 1009.65 1009.79 1009.97 1010.26 1010.67 1011.23 1011.58 1012.18
1007.27 1007.23 1007.04 1006.90 1006.72 1006.56 1006.58 1006.67 1007.48 1008.21 1008.90 1009.59 1010.20 1010.34 1010.18 1010.26 1010.29 1010.11 1009.91 1009.28 1009.16 1009.19 1009.38 1009.79 1009.46 1009.70 1009.68 1009.57 1009.28 1009.09 1008.98 1008.60 1008.44 1008.44 1008.95 1008.83 1008.86 1008.89 1008.82 1008.70 1008.73 1008.86 1009.08 1009.37 1009.69 1009.88 1010.06 1010.24 1010.43 1010.94 1011.33 1011.71 1012.14 1012.71
1007.94 1007.91 1007.70 1007.54 1007.66 1007.77 1007.83 1007.92 1008.19 1008.94 1009.31 1009.34 1009.64 1009.63 1009.74 1009.65 1009.09 1008.77 1008.73 1008.69 1008.63 1008.56 1009.10 1009.29 1008.99 1008.67 1008.69 1008.30 1008.22 1008.10 1008.17 1008.09 1008.05 1008.17 1008.37 1008.47 1008.57 1008.44 1008.27 1008.26 1008.48 1008.73 1009.09 1009.49 1009.81 1010.04 1010.26 1010.39 1010.66 1011.19 1011.68 1012.06 1012.54 1013.05
1008.34 1008.41 1008.49 1008.29 1008.06 1008.36 1008.49 1008.60 1008.43 1008.93 1009.17 1009.03 1008.68 1008.74 1008.65 1008.56 1008.49 1008.26 1008.14 1008.25 1008.31 1008.28 1008.69 1008.12 1007.64 1007.43 1007.26 1007.22 1007.28 1007.44 1007.25 1007.20 1007.80 1008.20 1008.07 1008.01 1008.08 1008.09 1008.02 1008.07 1008.30 1008.62 1009.07 1009.49 1009.81 1010.05 1010.37 1010.74 1011.07 1011.41 1011.84 1012.29 1012.76 1013.25
1008.82 1008.97 1008.81 1008.66 1008.65 1008.86 1009.38 1009.29 1009.27 1009.29 1009.26 1009.07 1008.73 1008.49 1008.08 1007.68 1007.63 1007.68 1007.44 1007.18 1007.78 1007.59 1007.24 1006.57 1006.41 1006.37 1006.03 1006.12 1006.23 1006.53 1006.80 1007.02 1007.22 1007.40 1007.50 1007.68 1007.80 1007.88 1007.89 1007.93 1008.19 1008.60 1009.00 1009.39 1009.71 1010.12 1010.42 1010.73 1011.11 1011.49 1012.01 1012.61 1012.97 1013.46
1009.20 1009.08 1009.30 1009.10 1009.53 1009.53 1009.55 1009.44 1009.53 1009.26 1009.33 1008.76 1008.45 1007.97 1007.58 1007.19 1006.90 1006.86 1006.85 1006.88 1006.68 1006.05 1005.74 1005.47 1005.40 1005.55 1005.92 1006.00 1006.04 1006.11 1006.32 1006.66 1006.91 1007.25 1007.32 1007.46 1007.64 1007.73 1007.73 1007.78 1008.13 1008.47 1008.86 1009.26 1009.55 1009.91 1010.28 1010.65 1011.05 1011.53 1012.10 1012.69 1013.08 1013.64
1009.42 1009.55 1009.90 1010.04 1010.25 1010.31 1009.95 1009.34 1009.48 1009.11 1009.02 1008.47 1007.99 1007.69 1007.28 1006.85 1006.39 1006.48 1006.43 1006.05 1005.41 1004.58 1004.41 1004.45 1004.48 1004.61 1005.00 1005.41 1005.77 1006.14 1006.33 1006.53 1006.86 1006.99 1006.99 1007.20 1007.28 1007.34 1007.48 1007.67 1007.87 1008.19 1008.68 1008.96 1009.19 1009.62 1010.06 1010.39 1010.86 1011.37 1011.91 1012.51 1013.10 1013.76
1010.01 1010.35 1010.59 1010.70 1010.75 1010.61 1010.11 1009.74 1009.41 1009.28 1008.83 1008.64 1008.24 1007.65 1006.86 1006.60 1006.56 1006.36 1006.03 1005.26 1004.45 1004.11 1004.20 1004.25 1004.29 1004.80 1005.30 1005.60 1005.84 1006.02 1006.18 1006.37 1006.61 1006.84 1006.96 1007.14 1007.25 1007.28 1007.40 1007.57 1007.77 1007.90 1008.14 1008.52 1009.02 1009.48 1009.88 1010.31 1010.69 1011.19 1011.71 1012.27 1012.89 1013.55
1011.25 1011.20 1011.29 1011.08 1010.74 1010.68 1010.48 1010.25 1009.87 1009.59 1009.49 1008.80 1008.42 1007.66 1006.82 1006.75 1006.72 1006.41 1005.83 1005.35 1005.14 1005.12 1004.94 1004.87 1004.97 1005.04 1005.36 1005.60 1005.83 1006.03 1006.10 1006.38 1006.68 1006.98 1007.06 1007.18 1007.36 1007.48 1007.57 1007.67 1007.84 1007.94 1008.08 1008.45 1008.85 1009.24 1009.68 1010.09 1010.50 1010.97 1011.49 1012.05 1012.69 1013.42
1011.72 1011.62 1011.60 1011.32 1011.01 1011.05 1010.91 1010.97 1010.54 1010.15 1009.84 1009.46 1008.56 1007.52 1007.19 1007.11 1006.95 1006.33 1005.92 1006.02 1005.90 1005.74 1005.58 1005.39 1005.24 1005.30 1005.39 1005.52 1005.85 1006.18 1006.40 1006.47 1006.62 1007.08 1007.27 1007.36 1007.44 1007.60 1007.93 1008.20 1008.38 1008.49 1008.38 1008.45 1008.78 1009.17 1009.57 1009.97 1010.38 1010.89 1011.45 1012.01 1012.68 1013.43
1012.22 1011.94 1011.41 1011.13 1011.23 1011.41 1011.62 1011.27 1010.98 1010.84 1010.63 1009.73 1008.86 1008.36 1007.99 1007.65 1007.06 1006.57 1006.59 1006.71 1006.58 1006.39 1006.16 1005.81 1005.40 1005.30 1005.37 1005.69 1006.05 1006.34 1006.49 1006.54 1006.73 1007.05 1007.40 1007.67 1007.79 1007.75 1007.92 1008.20 1008.26 1008.43 1008.30 1008.59 1008.88 1009.17 1009.57 1009.99 1010.45 1010.94 1011.49 1012.10 1012.73 1013.31
1011.57 1011.50 1011.74 1011.95 1011.81 1011.89 1012.34 1012.12 1011.65 1010.99 1010.00 1009.30 1009.21 1009.16 1008.34 1007.59 1007.26 1007.08 1007.02 1006.83 1006.71 1006.53 1006.40 1006.15 1005.84 1005.51 1005.40 1005.63 1006.06 1006.52 1007.02 1007.14 1007.36 1007.65 1007.93 1008.24 1008.27 1008.26 1008.14 1008.04 1007.91 1007.93 1008.16 1008.44 1008.85 1009.23 1009.59 1009.99 1010.42 1010.95 1011.49 1012.11 1012.83 1013.49
1011.61 1011.45 1011.70 1012.59 1012.44 1012.35 1012.13 1011.93 1011.40 1010.41 1009.73 1009.67 1009.66 1008.96 1008.18 1007.59 1007.41 1007.12 1006.82 1006.67 1006.44 1006.73 1006.74 1006.59 1006.25 1005.99 1005.93 1006.06 1006.37 1006.60 1006.89 1007.19 1007.66 1007.98 1008.29 1008.55 1008.76 1008.80 1008.39 1008.32 1008.48 1008.47 1008.54 1008.81 1008.95 1009.26 1009.67 1010.04 1010.50 1011.03 1011.66 1012.30 1013.03 1013.76
1011.70 1011.49 1012.02 1012.47 1012.92 1012.44 1011.62 1010.79 1010.77 1010.16 1009.76 1009.60 1009.27 1008.67 1008.02 1007.37 1006.67 1006.14 1006.39 1006.47 1006.67 1006.67 1006.34 1006.30 1006.16 1006.16 1006.26 1006.45 1006.73 1007.05 1007.05 1007.15 1007.30 1007.69 1007.89 1008.11 1008.27 1008.15 1008.34 1008.47 1008.56 1008.71 1008.84 1009.06 1009.39 1009.74 1010.08 1010.57 1011.07 1011.61 1012.21 1012.89 1013.58 1014.30
1011.42 1011.74 1012.01 1012.02 1011.91 1011.11 1010.77 1010.47 1010.37 1010.06 1009.66 1009.27 1008.73 1008.70 1007.76 1007.33 1006.17 1005.26 1005.27 1005.10 1005.45 1005.80 1005.92 1005.96 1005.77 1005.78 1005.98 1006.30 1006.63 1006.98 1007.14 1007.12 1007.22 1007.38 1007.51 1007.67 1007.87 1008.10 1008.29 1008.35 1008.54 1008.83 1009.09 1009.35 1009.73 1010.13 1010.62 1011.13 1011.61 1012.18 1012.78 1013.42 1014.08 1014.65
1011.61 1011.76 1011.84 1011.78 1011.18 1010.45 1010.25 1010.41 1010.47 1010.30 1009.74 1009.57 1009.15 1008.49 1007.87 1007.54 1007.26 1005.85 1005.01 1004.88 1005.31 1005.40 1005.37 1005.43 1005.37 1005.48 1005.60 1005.76 1006.03 1006.29 1006.37 1006.56 1006.94 1007.29 1007.41 1007.74 1008.31 1008.09 1008.20 1008.41 1008.67 1008.96 1009.31 1009.70 1010.08 1010.52 1010.97 1011.48 1012.08 1012.64 1013.26 1013.88 1014.48 1015.10
1011.33 1011.23 1011.17 1011.16 1010.82 1010.62 1010.36 1010.55 1010.54 1010.29 1009.98 1009.57 1009.10 1008.04 1007.69 1007.72 1007.17 1005.82 1005.14 1004.77 1004.85 1004.77 1004.92 1005.02 1005.14 1005.39 1005.59 1005.82 1006.01 1006.22 1006.38 1006.60 1006.84 1007.12 1007.45 1007.68 1007.90 1008.15 1008.38 1008.62 1008.90 1009.24 1009.67 1010.07 1010.50 1010.96 1011.47 1011.95 1012.51 1013.12 1013.73 1014.38 1015.06 1015.74
Wind_Speed
27 26 25 25 24 23 21 20 20 21 20 18 18 18 19 17 17 11 3 6 5 3 5 6 14 5 2 4 6 5 2 2 2 4 4 4 4 4 2 4 7 8 9 5 3 4 10 5 4 9 6 3 7 6
27 25 24 24 24 23 21 20 20 20 20 19 18 19 18 16 17 13 4 4 6 5 4 4 9 8 14 12 7 3 2 5 6 4 3 3 3 2 3 5 1 3 7 6 8 7 6 5 5 3 3 4 5 7
25 24 24 23 23 22 20 20 20 19 20 20 19 18 17 17 17 13 3 4 6 7 6 6 6 16 11 7 7 8 2 4 4 4 4 3 1 2 3 4 3 3 2 5 3 5 6 9 6 8 6 5 6 7
24 23 23 23 22 20 21 20 19 18 19 20 19 19 19 19 17 15 6 6 4 3 5 3 4 18 5 7 8 5 7 4 4 2 2 3 1 2 1 3 1 4 2 5 2 4 3 1 3 6 4 5 4 6
20 19 20 19 19 21 20 19 19 19 19 20 21 20 19 17 15 9 6 8 9 3 2 3 6 4 5 8 9 8 7 5 2 3 2 2 1 1 2 1 3 3 5 4 5 5 4 5 4 3 6 8 9 10
22 19 18 20 21 20 20 20 20 20 19 21 22 20 17 16 15 2 4 7 11 7 3 4 4 2 4 8 8 7 5 4 3 4 2 2 3 4 2 3 5 7 6 7 6 4 6 6 6 8 9 9 9 10
16 15 16 18 18 20 21 21 21 22 22 21 21 21 17 19 10 8 5 4 21 11 3 2 2 1 4 3 3 3 4 3 4 2 2 3 2 4 2 5 6 5 6 4 3 1 4 5 6 7 6 7 9 6
7 8 9 11 13 18 21 24 24 25 24 23 20 19 20 21 14 11 7 17 17 5 3 4 2 3 2 2 2 2 3 3 2 3 1 2 2 2 5 5 12 14 15 12 13 10 10 8 6 8 7 5 8 9
9 8 13 17 22 26 31 34 33 29 23 23 21 20 6 3 4 3 15 14 5 4 4 3 5 4 1 3 3 4 3 2 2 2 3 4 3 6 8 11 11 12 8 10 8 8 8 9 11 10 7 8 9 8
13 15 8 13 23 18 15 23 37 31 25 25 10 3 4 3 12 11 7 2 3 4 2 3 2 2 5 1 2 4 0 3 0 5 2 2 5 11 14 13 10 8 7 7 5 8 8 7 9 8 9 9 12 12
16 16 21 23 25 28 30 29 29 30 22 2 3 3 4 10 3 2 4 3 2 4 2 2 3 6 1 5 3 1 3 1 1 5 5 3 4 6 9 12 11 7 4 7 10 15 13 11 9 8 6 8 10 12
16 14 18 20 23 18 14 12 12 6 4 7 9 5 3 3 4 6 3 2 3 3 0 5 4 4 2 5 4 1 4 2 5 2 3 4 5 3 2 7 5 3 5 7 7 10 9 10 12 10 10 11 11 10
16 11 15 22 24 22 21 22 18 9 5 3 5 5 4 4 8 5 2 2 2 0 2 2 2 4 3 4 3 4 3 5 1 2 5 6 5 1 2 4 3 6 8 8 11 9 8 7 6 9 8 7 12 11
13 12 17 21 22 19 19 22 21 9 6 6 5 6 4 4 2 2 3 4 3 3 4 4 3 3 1 3 3 4 5 2 2 2 6 4 3 3 1 4 3 4 4 7 5 5 5 6 6 8 8 11 14 12
14 15 15 16 19 20 22 19 14 5 4 5 6 4 3 2 1 1 1 3 2 3 4 3 4 3 1 4 1 1 1 5 6 6 6 1 1 1 1 2 0 1 3 3 2 2 3 5 7 9 7 9 11 11
9 11 7 11 13 17 19 10 6 4 5 5 6 4 2 4 5 4 2 1 1 3 3 3 3 4 3 5 4 6 4 7 5 3 2 1 1 1 4 4 3 2 3 1 1 3 4 5 6 7 8 7 7 10
9 3 4 8 9 12 14 5 5 7 3 4 2 1 3 3 4 3 2 3 1 3 3 3 4 5 2 3 5 5 6 3 2 3 2 2 3 3 5 5 3 3 3 3 2 3 4 5 7 8 9 5 8 8
4 1 6 6 5 6 5 5 4 4 4 1 3 4 1 3 3 3 3 2 3 3 3 3 2 5 5 5 4 4 5 5 5 4 5 5 4 4 4 5 5 5 5 4 4 4 4 5 6 5 8 8 8 8
2 2 3 2 8 3 3 5 4 2 3 2 2 1 1 3 3 2 3 3 3 3 3 3 4 4 4 4 4 3 3 3 2 3 3 6 6 5 4 4 5 5 5 5 6 4 3 4 5 6 5 6 6 5
6 3 5 8 8 4 4 3 2 2 2 3 2 2 2 2 2 2 2 3 3 3 3 4 5 5 5 4 4 4 4 3 3 1 4 3 3 3 4 5 4 5 5 5 4 4 3 3 3 5 5 5 7 6
4 2 4 5 3 4 2 2 2 1 3 3 3 1 4 2 3 2 2 4 2 4 4 5 4 4 3 2 3 3 3 4 4 4 3 3 2 3 2 3 5 4 4 4 4 4 4 5 4 5 5 4 4 4
1 2 2 4 3 4 2 2 2 2 2 3 2 2 3 2 2 3 2 2 4 6 5 4 4 4 4 4 4 5 4 4 3 2 2 1 1 2 2 3 5 4 4 5 4 5 4 4 4 5 5 5 6 6
4 4 3 3 4 2 6 1 1 2 3 4 2 3 3 2 1 2 2 3 4 4 5 5 4 5 6 5 5 4 4 5 3 2 2 2 2 3 2 4 5 5 4 4 3 5 4 6 6 6 6 7 7 7
5 2 2 1 3 4 2 2 2 2 3 2 2 4 3 2 1 2 3 3 3 1 1 2 3 4 3 4 3 3 3 3 2 1 2 2 2 2 3 4 4 3 2 4 4 4 5 4 7 7 7 8 8 8
4 5 1 4 3 3 2 3 3 2 3 3 3 4 3 1 1 3 3 3 3 3 2 2 2 2 2 2 1 2 4 3 3 3 1 2 2 2 2 2 2 1 4 6 6 6 6 6 6 7 7 8 9 10
2 5 5 3 3 2 3 2 2 2 2 3 5 3 1 1 3 5 0 2 3 3 2 1 3 2 2 3 3 3 3 3 3 2 1 3 3 3 3 3 2 2 0 2 4 5 6 6 6 9 8 9 12 11
3 5 3 2 1 1 4 3 3 1 3 5 4 3 1 3 5 1 1 1 1 2 3 4 3 3 2 2 3 2 0 2 2 2 3 3 2 2 3 4 5 4 4 4 4 5 7 6 7 8 8 8 10 10
5 2 4 4 0 2 3 3 2 4 4 3 2 2 3 4 4 2 3 3 3 1 2 3 3 3 2 3 4 5 4 3 6 5 4 3 2 2 2 2 1 4 4 4 5 5 5 6 7 8 9 9 7 8
3 2 4 2 2 2 5 6 5 4 2 2 3 3 5 3 3 2 3 3 2 1 2 3 3 2 2 3 3 2 5 5 6 4 3 2 2 3 0 2 2 2 3 3 5 6 7 6 7 8 8 7 7 7
4 1 2 1 4 5 6 5 4 4 2 4 3 3 5 6 5 3 2 2 3 5 5 4 3 3 3 3 3 1 1 3 2 3 3 4 5 4 4 4 3 3 3 4 5 6 9 8 10 6 8 7 7 7
1 1 2 3 5 5 5 3 3 2 3 5 4 8 11 6 4 4 7 5 4 3 2 4 4 4 4 4 3 3 2 3 4 4 3 2 2 3 4 4 4 4 4 5 5 5 7 6 6 8 8 8 9 9
1 5 4 3 5 4 3 1 3 2 4 1 4 1 3 1 4 5 2 3 2 3 5 5 4 2 3 2 3 3 4 4 4 3 5 4 3 3 4 3 4 4 5 5 5 6 8 8 7 7 8 10 9 10
2 2 2 3 4 4 3 2 3 5 3 3 4 4 4 4 6 5 3 1 2 2 3 2 2 2 3 4 4 3 4 3 5 6 4 5 6 5 4 3 4 5 7 6 6 7 8 10 9 9 9 10 10 10
Wind_Direction
222 221 219 217 215 216 218 219 224 226 229 229 231 231 226 226 224 212 212 179 182 232 271 254 241 196 140 163 163 162 149 138 124 164 170 189 225 271 139 187 173 163 169 183 149 215 268 213 306 237 227 193 161 146
217 215 213 212 211 212 215 217 223 226 226 228 229 229 225 222 224 206 210 187 195 207 265 304 279 272 224 180 140 160 197 128 205 187 212 176 184 156 177 265 343 221 169 179 178 205 209 197 195 192 132 154 154 138
209 211 208 208 208 210 212 217 220 220 220 223 225 226 221 214 215 208 198 204 189 228 265 249 272 290 242 155 150 123 306 182 228 193 164 189 144 139 210 245 235 307 153 174 112 258 209 202 200 160 164 187 180 163
197 204 206 203 206 208 212 211 212 215 219 221 222 220 218 216 223 222 220 213 198 185 221 232 233 256 178 141 112 150 155 118 126 78 95 116 133 69 217 247 190 206 28 142 269 280 344 7 197 156 130 136 151 174
178 190 202 209 210 210 209 208 210 213 218 218 223 220 210 215 227 233 233 217 207 239 202 146 254 336 90 92 98 88 97 94 76 71 75 239 227 61 339 26 234 199 190 158 209 203 150 241 186 161 192 195 196 183
184 198 204 209 211 211 212 214 213 213 217 219 217 211 212 225 215 213 232 209 194 196 274 166 247 89 55 88 105 110 108 92 87 114 203 268 242 128 166 245 232 220 213 189 217 203 197 243 230 219 215 226 224 191
183 197 209 219 225 225 221 218 217 215 212 210 214 215 225 227 217 210 210 218 174 177 210 116 82 175 135 89 40 55 47 89 106 134 196 208 260 166 167 224 255 260 253 254 256 218 271 219 237 257 209 233 206 186
171 216 243 245 239 233 223 216 212 211 210 211 215 226 241 240 224 232 265 166 149 191 195 134 151 100 146 92 71 47 61 32 16 184 319 181 306 159 252 226 236 246 254 267 264 247 236 242 239 239 251 177 175 179
75 342 308 277 261 248 234 222 215 211 217 224 228 230 225 170 190 228 144 147 184 231 151 121 134 176 75 84 94 42 78 38 296 178 228 130 216 224 223 225 230 234 222 236 244 243 245 235 245 248 211 198 188 182
33 5 28 120 93 82 108 163 188 189 196 176 166 149 162 174 118 75 44 47 227 286 46 104 122 115 108 109 43 89 45 204 84 243 97 180 246 244 247 245 245 240 222 229 238 258 251 245 230 236 224 206 196 175
54 52 39 54 80 80 79 98 130 137 126 125 142 77 132 172 115 95 152 96 330 23 358 114 107 130 343 105 132 155 188 190 154 260 151 254 266 251 250 235 252 263 283 271 255 250 242 229 224 223 220 188 161 159
65 26 45 41 59 92 106 121 145 162 151 138 118 119 97 63 52 74 43 18 47 175 263 117 161 131 99 98 104 240 193 81 235 154 113 265 254 280 264 119 151 110 326 343 342 307 277 238 229 204 186 175 172 156
78 40 30 42 37 37 34 29 23 58 121 88 60 65 52 340 57 102 149 344 29 231 204 103 91 111 59 59 69 111 132 229 16 41 223 223 253 167 264 136 89 34 10 342 308 301 313 293 258 182 164 148 136 137
65 48 38 41 33 31 24 17 12 20 59 64 69 38 83 357 67 168 146 144 227 116 109 100 81 105 146 68 154 108 231 102 255 219 227 242 217 147 357 348 25 40 325 296 310 344 356 21 37 50 101 126 128 133
62 50 39 33 20 15 8 3 10 40 73 63 62 61 39 245 336 221 147 69 8 120 90 59 38 90 33 80 164 135 301 254 215 227 228 195 127 44 351 273 190 261 261 287 335 36 52 67 84 79 65 98 111 117
72 45 28 38 17 8 360 357 21 44 45 51 43 53 313 59 323 12 27 340 245 114 88 75 131 77 236 156 151 217 209 224 254 252 291 105 58 349 281 281 267 194 157 187 77 69 58 66 89 93 84 86 103 122
31 49 52 46 9 350 359 36 31 46 67 52 341 63 131 129 193 236 177 245 284 83 145 120 171 183 171 185 195 201 206 220 245 314 290 205 187 276 265 253 209 185 162 142 107 95 90 93 97 101 104 100 110 115
27 96 101 61 22 356 2 33 58 53 45 312 89 261 258 180 178 264 245 250 108 134 110 226 195 188 189 195 237 202 204 205 192 170 234 217 217 217 238 230 195 172 154 138 133 126 128 130 118 114 125 124 115 119
129 107 146 325 4 360 33 5 73 87 238 226 245 211 188 244 247 230 182 196 200 169 137 199 236 199 215 214 193 223 235 213 181 214 228 227 230 217 219 196 169 152 145 152 161 160 157 137 135 139 139 139 135 138
112 101 32 355 336 21 16 346 39 49 352 273 271 281 190 211 225 255 233 191 175 143 196 224 208 208 180 212 189 186 202 176 135 229 260 245 229 218 235 177 171 150 146 151 153 147 141 128 137 147 152 150 151 155
68 34 14 352 355 68 89 353 344 234 304 269 284 218 261 231 225 203 239 161 175 211 230 218 213 234 221 194 157 137 161 167 194 190 206 291 249 223 201 164 148 150 162 173 183 180 189 176 168 156 146 138 121 121
334 113 25 359 40 349 310 227 226 235 223 251 304 240 270 255 225 198 192 159 223 224 209 192 210 177 173 179 194 184 177 168 154 145 163 141 164 193 193 178 163 178 177 191 190 183 188 162 148 141 139 138 132 134
90 44 34 24 28 354 268 72 258 256 263 267 316 268 256 245 227 123 237 228 243 228 206 202 196 175 176 162 141 149 173 174 195 204 179 204 219 192 186 194 179 173 183 205 162 159 160 153 149 139 137 142 142 144
31 81 130 243 197 266 327 279 246 276 310 293 260 271 265 263 178 255 249 245 249 317 150 178 124 88 69 115 157 173 184 171 165 108 158 168 212 211 196 201 193 189 171 135 146 139 145 150 146 148 155 156 159 155
56 284 180 281 269 241 245 298 270 262 259 244 247 281 273 173 251 248 241 311 350 356 3 54 76 101 148 177 157 205 188 167 172 187 223 142 129 76 65 70 94 159 164 166 172 170 168 161 162 159 156 157 154 153
259 258 188 222 274 135 257 279 281 306 302 285 253 266 36 216 236 245 27 350 355 355 338 258 201 201 218 180 156 162 189 210 152 148 234 214 188 166 170 163 151 292 343 122 145 157 156 159 157 154 156 151 148 141
252 281 241 240 232 4 344 304 274 141 260 244 269 315 290 247 248 242 127 339 337 333 316 322 264 208 175 141 107 98 81 126 145 150 110 79 57 60 161 177 198 227 168 154 156 156 161 157 157 154 150 148 156 155
219 215 181 261 148 148 193 290 249 240 244 265 38 303 216 221 251 237 209 235 221 286 312 313 323 304 161 145 136 126 82 78 87 87 77 46 28 30 31 24 31 138 137 140 142 136 149 153 154 153 154 151 145 150
268 269 93 310 304 269 217 204 227 240 220 114 167 263 261 250 218 217 253 215 198 164 262 271 300 5 41 93 98 98 139 150 138 140 188 242 312 290 225 107 88 80 107 107 134 135 146 138 144 146 144 139 135 131
274 136 130 191 177 235 241 194 228 242 222 194 212 292 273 270 250 223 191 168 182 210 217 205 199 175 172 164 153 144 219 167 157 148 176 217 225 195 156 149 136 113 104 113 121 118 107 102 108 105 114 120 127 123
221 82 271 224 245 239 234 252 286 242 228 226 226 244 267 284 283 236 216 215 196 150 155 219 201 188 181 177 165 166 236 223 181 169 153 148 125 146 143 141 142 134 128 128 129 122 126 125 128 129 130 131 136 137
183 201 188 252 278 270 337 202 245 250 279 333 271 244 325 333 268 281 269 131 150 195 207 205 183 183 182 163 188 178 180 163 156 157 150 148 161 153 134 127 133 129 131 125 128 139 142 139 139 141 139 137 136 135
222 229 240 283 309 313 291 37 316 291 297 280 272 206 202 194 244 257 305 343 199 209 215 169 170 163 175 152 136 116 99 114 133 137 146 164 147 135 121 115 123 128 127 122 125 130 132 133 131 131 130 129 128 127